KFAYKJGG

Guest
Details From KFAY - Fayetteville Rgnl Grannis Fld
To KJGG - WILLIAMSBURG JAMESTOWN
Flight Number -
Tags generated
Created
Modified
Stats Distance 171 nm / 317 km
Max Altitude 19,500 ft / 5,944 m
Waypoints 3
Social Downloads 0
Likes 0
Share VATSIM

Download

Looking for another format? Having issues loading an existing format? Contact us
Advertisement - Login to hide

Notes

Basic altitude profile: - Ascent Rate: 2500ft/min - Ascent Speed: 250kts - Cruise Altitude: 20000ft - Cruise Speed: 420kts - Descent Rate: 1500ft/min - Descent Speed: 250kts Options: - Use NATs: yes - Use PACOTS: yes - Use low airways: yes - Use high airways: yes

Route

KFAY FRANZ KJGG

ID Type Via Altitude Latitude Longitude Leg Dist Tot Dist Heading (true) Name
O KFAY APT - 0 ft / 0 m 34.99055˚ -78.88025˚ - 0 nm - Fayetteville Rgnl Grannis Fld
FRANZ FIX - 19,500 ft / 5,944 m 35.95785˚ -77.90773˚ 75 nm 75 nm 39° / 40° -
O KJGG APT - 0 ft / 0 m 37.23917˚ -76.71609˚ 96 nm 171 nm 36° / 37° WILLIAMSBURG JAMESTOWN

Altitude Profile

Advertisement - Login to hide

Weather


0- 5 10 15 20 25 30 35+ Temperature / ° C

Clouds and Precipitation
Forecast for 2018-05-27 18:00 UTC. Updated an hour ago

Ground ~20,000 ft ~40,000 ft Winds

KFAY

Details ICAO KFAY (FAY)
Name Fayetteville Rgnl Grannis Fld
Region United States
Timezone America/New_York (UTC-4.0)
Stats Elevation 189 ft / 58 m (AMSL)
Location 34.990551° -78.880250°
Runways 2
Magnetic Variation 8.989° W

METAR

KFAY 271753Z 17008KT 10SM CLR 29/18 A3000 RMK AO2 SLP153 T02940178 10294 20217 58008

Decode

TAF

KFAY 271742Z 2718/2818 21008KT P6SM BKN040 BKN150 FM280400 VRB03KT P6SM BKN015 FM280800 08007KT 4SM -SHRA BR OVC010 FM281400 13008KT 2SM -RA BR OVC007

Decode

Departure Runways

ID Width Length Bearing (true) Bearing (mag) Surface Threshold Offset Overrun Length
04 150 ft / 46 m 7,722 ft / 2,354 m 31.06° 40.05° Asphalt 499 ft / 152 m 0 ft / 0 m
10 150 ft / 46 m 4,792 ft / 1,461 m 91.16° 100.15° Asphalt 0 ft / 0 m 0 ft / 0 m
22 150 ft / 46 m 7,722 ft / 2,354 m 211.07° 220.06° Asphalt 706 ft / 215 m 0 ft / 0 m
28 150 ft / 46 m 4,792 ft / 1,461 m 271.17° 280.16° Asphalt 0 ft / 0 m 0 ft / 0 m

KJGG

Details ICAO KJGG
Name WILLIAMSBURG JAMESTOWN
Region United States
Timezone America/New_York (UTC-4.0)
Stats Elevation 49 ft / 15 m (AMSL)
Location 37.239171° -76.716091°
Runways 1
Magnetic Variation 10.690° W

METAR

KJGG 271815Z AUTO 27010G14KT 10SM CLR 32/21 A2995 RMK AO1

Decode

TAF

Not found

Destination Runways

ID Width Length Bearing (true) Bearing (mag) Surface Threshold Offset Overrun Length
13 60 ft / 18 m 3,201 ft / 976 m 120.46° 131.15° Asphalt 0 ft / 0 m 0 ft / 0 m
31 60 ft / 18 m 3,201 ft / 976 m 300.47° 311.16° Asphalt 0 ft / 0 m 0 ft / 0 m